When you browse on this site, cookies collect data to enhance your experience and personalize the content and advertising you see.
Visit our Privacy Policy to learn more. By continuing to use the site, you agree to this use of cookies and data.

Hourly Weather Kipungo

Today, 4 August, Tuesday

Time Temperature Precipitation Wind Pressure Humidity
00:00 +13°C° 0 mm 1 mps 654 mmHg 28%
01:00 +10°C° 0 mm 0 mps 654 mmHg 32%
02:00 +9°C° 0 mm 0 mps 653 mmHg 35%
03:00 +9°C° 0 mm 0 mps 653 mmHg 37%
04:00 +8°C° 0 mm 0 mps 653 mmHg 40%
05:00 +8°C° 0 mm 0 mps 653 mmHg 39%
06:00 +9°C° 0 mm 0 mps 654 mmHg 39%
07:00 +10°C° 0 mm 0 mps 655 mmHg 35%
08:00 +16°C° 0 mm 1 mps 655 mmHg 29%
09:00 +20°C° 0 mm 2 mps 656 mmHg 23%
10:00 +25°C° 0 mm 3 mps 657 mmHg 17%
11:00 +28°C° 0 mm 2 mps 657 mmHg 14%
12:00 +31°C° 0 mm 1 mps 657 mmHg 11%
13:00 +34°C° 0 mm 1 mps 657 mmHg 8%
14:00 +34°C° 0 mm 1 mps 657 mmHg 8%
15:00 +33°C° 0 mm 1 mps 656 mmHg 8%
16:00 +32°C° 0 mm 1 mps 655 mmHg 8%
17:00 +28°C° 0 mm 1 mps 655 mmHg 10%
18:00 +25°C° 0 mm 1 mps 654 mmHg 13%
19:00 +21°C° 0 mm 1 mps 654 mmHg 15%
20:00 +18°C° 0 mm 2 mps 654 mmHg 25%
21:00 +16°C° 0 mm 2 mps 654 mmHg 34%
22:00 +15°C° 0 mm 2 mps 654 mmHg 44%
23:00 +14°C° 0 mm 2 mps 654 mmHg 54%

Tomorrow, 5 August, Wednesday

Time Temperature Precipitation Wind Pressure Humidity
00:00 +13°C° 0 mm 1 mps 654 mmHg 63%
01:00 +12°C° 0 mm 1 mps 653 mmHg 73%
02:00 +11°C° 0 mm 1 mps 653 mmHg 74%
03:00 +11°C° 0 mm 1 mps 653 mmHg 74%
04:00 +10°C° 0 mm 1 mps 653 mmHg 74%
05:00 +11°C° 0 mm 1 mps 653 mmHg 72%
06:00 +10°C° 0 mm 0 mps 654 mmHg 69%
07:00 +10°C° 0 mm 0 mps 654 mmHg 67%
08:00 +16°C° 0 mm 1 mps 655 mmHg 51%
09:00 +22°C° 0 mm 1 mps 656 mmHg 35%
10:00 +27°C° 0 mm 1 mps 658 mmHg 19%
11:00 +29°C° 0 mm 1 mps 657 mmHg 15%
12:00 +31°C° 0 mm 1 mps 657 mmHg 12%
13:00 +34°C° 0 mm 1 mps 657 mmHg 9%
14:00 +34°C° 0 mm 1 mps 656 mmHg 9%
15:00 +33°C° 0 mm 1 mps 656 mmHg 8%
16:00 +33°C° 0 mm 1 mps 655 mmHg 8%
17:00 +30°C° 0 mm 1 mps 655 mmHg 11%
18:00 +26°C° 0 mm 1 mps 654 mmHg 13%
19:00 +22°C° 0 mm 1 mps 654 mmHg 16%
20:00 +20°C° 0 mm 2 mps 654 mmHg 25%
21:00 +18°C° 0 mm 2 mps 654 mmHg 34%
22:00 +16°C° 0 mm 2 mps 654 mmHg 44%
23:00 +15°C° 0 mm 2 mps 654 mmHg 51%

Day after tomorrow, 6 August, Thursday

Time Temperature Precipitation Wind Pressure Humidity
00:00 +14°C° 0 mm 1 mps 654 mmHg 58%
01:00 +11°C° 0 mm 0 mps 654 mmHg 65%
02:00 +11°C° 0 mm 0 mps 653 mmHg 67%
03:00 +11°C° 0 mm 0 mps 653 mmHg 69%
04:00 +10°C° 0 mm 0 mps 653 mmHg 71%
05:00 +12°C° 0 mm 1 mps 653 mmHg 67%
06:00 +12°C° 0 mm 1 mps 654 mmHg 64%
07:00 +12°C° 0 mm 1 mps 654 mmHg 61%
08:00 +18°C° 0 mm 1 mps 655 mmHg 46%
09:00 +21°C° 0 mm 2 mps 656 mmHg 31%
10:00 +27°C° 0 mm 2 mps 657 mmHg 16%
11:00 +29°C° 0 mm 2 mps 657 mmHg 14%
12:00 +31°C° 0 mm 2 mps 657 mmHg 11%
13:00 +34°C° 0 mm 2 mps 656 mmHg 8%
14:00 +34°C° 0 mm 2 mps 656 mmHg 7%
15:00 +34°C° 0 mm 2 mps 655 mmHg 7%
16:00 +33°C° 0 mm 1 mps 654 mmHg 7%
17:00 +30°C° 0 mm 1 mps 654 mmHg 9%
18:00 +26°C° 0 mm 1 mps 654 mmHg 11%
19:00 +22°C° 0 mm 1 mps 653 mmHg 13%
20:00 +21°C° 0 mm 1 mps 654 mmHg 14%
21:00 +19°C° 0 mm 2 mps 654 mmHg 16%
22:00 +17°C° 0 mm 2 mps 655 mmHg 18%
23:00 +16°C° 0 mm 1 mps 654 mmHg 23%

7 August, Friday

Time Temperature Precipitation Wind Pressure Humidity
00:00 +15°C° 0 mm 1 mps 654 mmHg 29%
01:00 +13°C° 0 mm 1 mps 653 mmHg 35%
02:00 +13°C° 0 mm 1 mps 653 mmHg 39%
03:00 +12°C° 0 mm 1 mps 653 mmHg 42%
04:00 +11°C° 0 mm 0 mps 653 mmHg 45%
05:00 +11°C° 0 mm 0 mps 653 mmHg 41%
06:00 +11°C° 0 mm 0 mps 654 mmHg 37%
07:00 +11°C° 0 mm 0 mps 654 mmHg 34%
08:00 +18°C° 0 mm 1 mps 655 mmHg 25%
09:00 +23°C° 0 mm 2 mps 657 mmHg 17%
10:00 +28°C° 0 mm 3 mps 658 mmHg 9%
11:00 +30°C° 0 mm 3 mps 657 mmHg 8%
12:00 +33°C° 0 mm 3 mps 657 mmHg 7%
13:00 +35°C° 0 mm 3 mps 657 mmHg 6%
14:00 +35°C° 0 mm 2 mps 656 mmHg 6%
15:00 +35°C° 0 mm 1 mps 656 mmHg 6%
16:00 +35°C° 0 mm 1 mps 655 mmHg 5%
17:00 +31°C° 0 mm 1 mps 655 mmHg 7%
18:00 +27°C° 0 mm 1 mps 655 mmHg 9%
19:00 +23°C° 0 mm 1 mps 655 mmHg 11%
20:00 +21°C° 0 mm 1 mps 655 mmHg 21%
21:00 +19°C° 0 mm 1 mps 655 mmHg 30%
22:00 +16°C° 0 mm 2 mps 655 mmHg 39%
23:00 +15°C° 0 mm 1 mps 654 mmHg 48%

8 August, Saturday

Time Temperature Precipitation Wind Pressure Humidity
00:00 +14°C° 0 mm 1 mps 654 mmHg 57%
01:00 +13°C° 0 mm 1 mps 653 mmHg 66%
02:00 +12°C° 0 mm 1 mps 653 mmHg 66%
03:00 +12°C° 0 mm 1 mps 653 mmHg 65%
04:00 +12°C° 0 mm 1 mps 653 mmHg 65%
05:00 +12°C° 0 mm 1 mps 653 mmHg 60%
06:00 +12°C° 0 mm 1 mps 654 mmHg 55%
07:00 +11°C° 0 mm 0 mps 654 mmHg 50%
08:00 +16°C° 0 mm 1 mps 655 mmHg 37%
09:00 +21°C° 0 mm 2 mps 656 mmHg 25%
10:00 +27°C° 0 mm 2 mps 658 mmHg 13%
11:00 +30°C° 0 mm 2 mps 657 mmHg 11%
12:00 +33°C° 0 mm 3 mps 657 mmHg 10%
13:00 +35°C° 0 mm 3 mps 656 mmHg 8%
14:00 +35°C° 0 mm 2 mps 656 mmHg 8%
15:00 +35°C° 0 mm 2 mps 655 mmHg 7%
16:00 +35°C° 0 mm 2 mps 655 mmHg 7%
17:00 +31°C° 0 mm 2 mps 655 mmHg 10%
18:00 +27°C° 0 mm 2 mps 655 mmHg 13%
19:00 +24°C° 0 mm 2 mps 655 mmHg 16%
20:00 +20°C° 0 mm 2 mps 654 mmHg 29%
21:00 +18°C° 0 mm 2 mps 654 mmHg 42%
22:00 +16°C° 0 mm 2 mps 654 mmHg 55%
23:00 +15°C° 0 mm 2 mps 654 mmHg 58%

9 August, Sunday

Time Temperature Precipitation Wind Pressure Humidity
00:00 +14°C° 0 mm 1 mps 653 mmHg 61%
01:00 +14°C° 0 mm 1 mps 653 mmHg 63%
02:00 +13°C° 0 mm 1 mps 653 mmHg 62%
03:00 +13°C° 0 mm 1 mps 653 mmHg 62%
04:00 +13°C° 0 mm 1 mps 652 mmHg 61%
05:00 +13°C° 0 mm 1 mps 653 mmHg 59%
06:00 +13°C° 0 mm 1 mps 653 mmHg 57%
07:00 +12°C° 0 mm 0 mps 654 mmHg 55%
08:00 +19°C° 0 mm 1 mps 655 mmHg 42%
09:00 +24°C° 0 mm 1 mps 656 mmHg 30%
10:00 +28°C° 0 mm 2 mps 657 mmHg 17%
11:00 +30°C° 0 mm 2 mps 656 mmHg 15%
12:00 +33°C° 0 mm 3 mps 656 mmHg 14%
13:00 +35°C° 0 mm 3 mps 655 mmHg 12%
14:00 +35°C° 0 mm 2 mps 655 mmHg 12%
15:00 +35°C° 0 mm 2 mps 654 mmHg 11%
16:00 +34°C° 0 mm 1 mps 654 mmHg 10%
17:00 +31°C° 0 mm 1 mps 654 mmHg 13%
18:00 +28°C° 0 mm 2 mps 654 mmHg 16%
19:00 +24°C° 0 mm 2 mps 653 mmHg 19%
20:00 +21°C° 0 mm 2 mps 653 mmHg 28%
21:00 +19°C° 0 mm 2 mps 653 mmHg 36%
22:00 +17°C° 0 mm 2 mps 653 mmHg 44%
23:00 +16°C° 0 mm 2 mps 653 mmHg 49%
Show more